San Luis Obispo, CA

7:38 AM PST on December 07, 2016 (GMT -0800)
San Luis Obispo County-McChesney

Weather History for KSBP - March, 2013

Change the Weather History Date:

Friday, March 1, 2013

  Actual Average Record
Temperature  
Mean Temperature 67 °F -  
Max Temperature 82 °F 62 °F 82 °F (2013)
Min Temperature 52 °F 43 °F 28 °F (1962)
Cooling Degree Days 2    
Growing Degree Days 17 (Base 50)    
Moisture  
Dew Point 41 °F    
Average Humidity 46    
Maximum Humidity 77    
Minimum Humidity 17    
Precipitation  
Precipitation 0.00 in - - ()
Sea Level Pressure  
Sea Level Pressure 30.26 in    
Wind  
Wind Speed 4 mph (SW)    
Max Wind Speed 9 mph    
Max Gust Speed -    
Visibility 10 miles    
Events      
Averages and records for this station are not official NWS values.
T = Trace of Precipitation, MM = Missing Value Source: NWS Daily Summary

Daily Weather History Graph

Daily Weather History Graph

Search for Another Location

Airport or City:

Trip Planner

Search our weather history database for the weather conditions in past years. The results will help you decide how hot, cold, wet, or windy it might be!

Date:

Astronomy

Mar. 01, 2013 Rise Set
Actual Time 6:31 AM PST 5:58 PM PST
Civil Twilight 6:06 AM PST 6:23 PM PST
Nautical Twilight 5:36 AM PST 6:53 PM PST
Astronomical Twilight 5:07 AM PST 7:22 PM PST
Moon 10:25 PM PST (3/1) 8:32 AM PST (3/1)
Length of Visible Light 12h 17m
Length of Day
11h 26m
Waning Gibbous, 82% of the Moon is Illuminated
Mar 1
Waning Gibbous
Mar 4
Last Quarter
Mar 11
New
Mar 19
First Quarter
Mar 27
Full

Hourly Weather History & Observations

Time (PST) Temp. Dew Point Humidity Pressure Visibility Wind Dir Wind Speed Gust Speed Precip Events Conditions
12:56 AM 57.0 °F 39.0 °F 51% 30.35 in 10.0 mi Variable 4.6 mph - N/A   Clear
1:56 AM 62.1 °F 37.0 °F 39% 30.34 in 10.0 mi North 4.6 mph - N/A   Clear
2:56 AM 57.0 °F 37.9 °F 49% 30.33 in 10.0 mi Calm Calm - N/A   Clear
4:56 AM 57.9 °F 37.0 °F 46% 30.32 in 10.0 mi ESE 3.5 mph - N/A   Clear
5:56 AM 57.0 °F 37.9 °F 49% 30.31 in 10.0 mi West 4.6 mph - N/A   Clear
6:56 AM 57.9 °F 37.9 °F 47% 30.31 in 10.0 mi SSW 5.8 mph - N/A   Clear
7:56 AM 61.0 °F 41.0 °F 48% 30.30 in 10.0 mi SSW 9.2 mph - N/A   Clear
8:56 AM 68.0 °F 41.0 °F 37% 30.30 in 10.0 mi Calm Calm - N/A   Clear
9:56 AM 71.1 °F 39.9 °F 32% 30.29 in 10.0 mi West 3.5 mph - N/A   Clear
10:56 AM 75.9 °F 39.0 °F 26% 30.27 in 10.0 mi Calm Calm - N/A   Clear
11:56 AM 80.1 °F 37.9 °F 22% 30.25 in 10.0 mi SE 3.5 mph - N/A   Clear
12:56 PM 81.0 °F 34.0 °F 18% 30.22 in 10.0 mi ENE 3.5 mph - N/A   Clear
1:56 PM 82.0 °F 33.1 °F 17% 30.20 in 10.0 mi WSW 9.2 mph - N/A   Clear
2:56 PM 79.0 °F 34.0 °F 20% 30.19 in 10.0 mi SW 6.9 mph - N/A   Clear
3:56 PM 73.9 °F 50.0 °F 43% 30.20 in 10.0 mi NW 9.2 mph - N/A   Clear
4:56 PM 69.1 °F 48.9 °F 49% 30.19 in 10.0 mi NW 9.2 mph - N/A   Clear
5:56 PM 63.0 °F 46.9 °F 56% 30.21 in 10.0 mi NW 5.8 mph - N/A   Clear
6:56 PM 63.0 °F 46.0 °F 54% 30.23 in 10.0 mi Calm Calm - N/A   Clear
7:56 PM 57.9 °F 45.0 °F 62% 30.23 in 10.0 mi SSW 3.5 mph - N/A   Clear
8:56 PM 55.9 °F 46.0 °F 69% 30.24 in 10.0 mi SE 4.6 mph - N/A   Clear
9:56 PM 54.0 °F 45.0 °F 72% 30.24 in 10.0 mi Calm Calm - N/A   Clear
10:56 PM 52.0 °F 45.0 °F 77% 30.23 in 10.0 mi Calm Calm - N/A   Clear
11:56 PM 52.0 °F 44.1 °F 74% 30.21 in 10.0 mi Calm Calm - N/A   Clear